When you browse on this site, cookies collect data to enhance your experience and personalize the content and advertising you see.
Visit our Privacy Policy to learn more. By continuing to use the site, you agree to this use of cookies and data.
EN

Hourly Weather Ermesinde

Today, 15 August, Saturday

Time Temperature Precipitation Wind Pressure Humidity
00:00 +15°C° 0 mm 0 mps 753 mmHg 88%
01:00 +15°C° 0 mm 0 mps 753 mmHg 89%
02:00 +14°C° 0 mm 0 mps 752 mmHg 90%
03:00 +15°C° 0 mm 1 mps 753 mmHg 90%
04:00 +15°C° 0 mm 1 mps 753 mmHg 90%
05:00 +15°C° 0 mm 1 mps 753 mmHg 90%
06:00 +18°C° 0.1 mm 1 mps 753 mmHg 82%
07:00 +19°C° 0.1 mm 2 mps 753 mmHg 74%
08:00 +21°C° 0.1 mm 2 mps 753 mmHg 65%
09:00 +23°C° 0.1 mm 2 mps 753 mmHg 61%
10:00 +24°C° 0.1 mm 3 mps 753 mmHg 57%
11:00 +25°C° 0.1 mm 4 mps 753 mmHg 53%
12:00 +25°C° 0 mm 4 mps 753 mmHg 52%
13:00 +25°C° 0 mm 4 mps 753 mmHg 50%
14:00 +25°C° 0 mm 4 mps 753 mmHg 49%
15:00 +23°C° 0 mm 4 mps 753 mmHg 53%
16:00 +22°C° 0 mm 4 mps 753 mmHg 57%
17:00 +22°C° 0 mm 4 mps 753 mmHg 61%
18:00 +20°C° 0 mm 3 mps 753 mmHg 69%
19:00 +19°C° 0 mm 2 mps 754 mmHg 77%
20:00 +18°C° 0 mm 1 mps 754 mmHg 85%
21:00 +18°C° 0 mm 1 mps 754 mmHg 86%
22:00 +18°C° 0 mm 1 mps 754 mmHg 87%
23:00 +18°C° 0 mm 1 mps 754 mmHg 87%

Tomorrow, 16 August, Sunday

Time Temperature Precipitation Wind Pressure Humidity
00:00 +18°C° 0.1 mm 1 mps 754 mmHg 88%
01:00 +18°C° 0.1 mm 1 mps 753 mmHg 89%
02:00 +16°C° 0.1 mm 1 mps 753 mmHg 90%
03:00 +16°C° 0.1 mm 1 mps 753 mmHg 90%
04:00 +16°C° 0.1 mm 1 mps 753 mmHg 90%
05:00 +16°C° 0.1 mm 1 mps 754 mmHg 90%
06:00 +18°C° 0.1 mm 2 mps 754 mmHg 83%
07:00 +20°C° 0.1 mm 2 mps 754 mmHg 76%
08:00 +21°C° 0.1 mm 2 mps 754 mmHg 69%
09:00 +23°C° 0.1 mm 2 mps 754 mmHg 63%
10:00 +24°C° 0.1 mm 3 mps 754 mmHg 57%
11:00 +25°C° 0.1 mm 3 mps 754 mmHg 51%
12:00 +25°C° 0 mm 3 mps 753 mmHg 50%
13:00 +25°C° 0 mm 4 mps 753 mmHg 49%
14:00 +26°C° 0 mm 4 mps 753 mmHg 49%
15:00 +25°C° 0 mm 4 mps 753 mmHg 53%
16:00 +24°C° 0 mm 3 mps 752 mmHg 56%
17:00 +22°C° 0 mm 3 mps 752 mmHg 60%
18:00 +21°C° 0 mm 3 mps 753 mmHg 68%
19:00 +20°C° 0 mm 3 mps 753 mmHg 77%
20:00 +18°C° 0 mm 2 mps 753 mmHg 85%
21:00 +19°C° 0.1 mm 3 mps 753 mmHg 84%
22:00 +19°C° 0.1 mm 3 mps 753 mmHg 84%
23:00 +19°C° 0.1 mm 3 mps 753 mmHg 83%

Day after tomorrow, 17 August, Monday

Time Temperature Precipitation Wind Pressure Humidity
00:00 +19°C° 0.1 mm 3 mps 752 mmHg 83%
01:00 +19°C° 0.1 mm 3 mps 752 mmHg 83%
02:00 +19°C° 0.1 mm 3 mps 752 mmHg 82%
03:00 +19°C° 0.1 mm 4 mps 751 mmHg 83%
04:00 +19°C° 0.1 mm 4 mps 751 mmHg 84%
05:00 +19°C° 0.1 mm 4 mps 751 mmHg 85%
06:00 +20°C° 0.2 mm 5 mps 751 mmHg 85%
07:00 +21°C° 0.2 mm 5 mps 751 mmHg 84%
08:00 +21°C° 0.2 mm 6 mps 750 mmHg 84%
09:00 +21°C° 0.8 mm 6 mps 751 mmHg 86%
10:00 +21°C° 0.8 mm 6 mps 751 mmHg 88%
11:00 +21°C° 0.8 mm 6 mps 751 mmHg 90%
12:00 +22°C° 0.3 mm 5 mps 751 mmHg 85%
13:00 +22°C° 0.3 mm 4 mps 751 mmHg 80%
14:00 +22°C° 0.3 mm 4 mps 752 mmHg 75%
15:00 +22°C° 0.2 mm 3 mps 752 mmHg 76%
16:00 +22°C° 0.2 mm 3 mps 752 mmHg 76%
17:00 +22°C° 0.2 mm 3 mps 752 mmHg 76%
18:00 +21°C° 0.1 mm 3 mps 752 mmHg 81%
19:00 +20°C° 0.1 mm 2 mps 753 mmHg 86%
20:00 +19°C° 0.1 mm 2 mps 753 mmHg 90%
21:00 +19°C° 0.2 mm 2 mps 753 mmHg 91%
22:00 +19°C° 0.2 mm 2 mps 753 mmHg 92%
23:00 +19°C° 0.2 mm 2 mps 753 mmHg 93%

18 August, Tuesday

Time Temperature Precipitation Wind Pressure Humidity
00:00 +20°C° 0.1 mm 1 mps 753 mmHg 94%
01:00 +19°C° 0.1 mm 1 mps 753 mmHg 94%
02:00 +19°C° 0.1 mm 1 mps 753 mmHg 94%
03:00 +19°C° 0.1 mm 1 mps 753 mmHg 94%
04:00 +17°C° 0.1 mm 0 mps 753 mmHg 93%
05:00 +17°C° 0.1 mm 0 mps 753 mmHg 92%
06:00 +18°C° 0 mm 0 mps 753 mmHg 86%
07:00 +22°C° 0 mm 1 mps 753 mmHg 79%
08:00 +23°C° 0 mm 1 mps 754 mmHg 72%
09:00 +25°C° 0 mm 1 mps 753 mmHg 65%
10:00 +26°C° 0 mm 2 mps 753 mmHg 57%
11:00 +27°C° 0 mm 3 mps 753 mmHg 50%
12:00 +27°C° 0 mm 3 mps 753 mmHg 49%
13:00 +27°C° 0 mm 3 mps 753 mmHg 49%
14:00 +27°C° 0 mm 4 mps 752 mmHg 48%
15:00 +26°C° 0 mm 4 mps 752 mmHg 51%
16:00 +25°C° 0 mm 4 mps 752 mmHg 53%
17:00 +23°C° 0 mm 4 mps 752 mmHg 56%
18:00 +22°C° 0 mm 3 mps 752 mmHg 64%
19:00 +20°C° 0 mm 2 mps 753 mmHg 73%
20:00 +19°C° 0 mm 1 mps 753 mmHg 81%
21:00 +19°C° 0 mm 1 mps 753 mmHg 81%
22:00 +18°C° 0 mm 1 mps 753 mmHg 81%
23:00 +18°C° 0 mm 1 mps 753 mmHg 82%

19 August, Wednesday

Time Temperature Precipitation Wind Pressure Humidity
00:00 +18°C° 0 mm 1 mps 752 mmHg 81%
01:00 +18°C° 0 mm 1 mps 752 mmHg 80%
02:00 +18°C° 0 mm 1 mps 751 mmHg 80%
03:00 +16°C° 0 mm 1 mps 751 mmHg 78%
04:00 +16°C° 0 mm 1 mps 751 mmHg 76%
05:00 +16°C° 0 mm 1 mps 751 mmHg 75%
06:00 +20°C° 0 mm 1 mps 751 mmHg 65%
07:00 +23°C° 0 mm 1 mps 751 mmHg 55%
08:00 +26°C° 0 mm 1 mps 751 mmHg 46%
09:00 +27°C° 0 mm 2 mps 750 mmHg 44%
10:00 +28°C° 0 mm 3 mps 750 mmHg 43%
11:00 +29°C° 0 mm 3 mps 750 mmHg 41%
12:00 +29°C° 0 mm 3 mps 750 mmHg 46%
13:00 +29°C° 0 mm 3 mps 749 mmHg 51%
14:00 +28°C° 0 mm 4 mps 749 mmHg 57%
15:00 +28°C° 0 mm 3 mps 749 mmHg 61%
16:00 +27°C° 0 mm 3 mps 749 mmHg 66%
17:00 +26°C° 0 mm 2 mps 749 mmHg 71%
18:00 +25°C° 0 mm 2 mps 749 mmHg 78%
19:00 +23°C° 0 mm 1 mps 749 mmHg 85%
20:00 +22°C° 0 mm 1 mps 749 mmHg 91%
21:00 +22°C° 0 mm 1 mps 749 mmHg 92%
22:00 +22°C° 0 mm 1 mps 749 mmHg 93%
23:00 +21°C° 0 mm 1 mps 749 mmHg 93%

20 August, Thursday

Time Temperature Precipitation Wind Pressure Humidity
00:00 +21°C° 0 mm 1 mps 748 mmHg 94%
01:00 +21°C° 0 mm 1 mps 748 mmHg 94%
02:00 +20°C° 0 mm 2 mps 748 mmHg 94%
03:00 +20°C° 0 mm 2 mps 748 mmHg 94%
04:00 +20°C° 0 mm 2 mps 748 mmHg 93%
05:00 +20°C° 0 mm 2 mps 748 mmHg 92%
06:00 +23°C° 0 mm 2 mps 748 mmHg 82%
07:00 +24°C° 0 mm 2 mps 748 mmHg 72%
08:00 +26°C° 0 mm 3 mps 748 mmHg 62%
09:00 +27°C° 0 mm 3 mps 748 mmHg 57%
10:00 +28°C° 0 mm 4 mps 748 mmHg 52%
11:00 +30°C° 0 mm 5 mps 748 mmHg 46%
12:00 +30°C° 0 mm 5 mps 747 mmHg 47%
13:00 +29°C° 0 mm 5 mps 747 mmHg 48%
14:00 +29°C° 0 mm 5 mps 747 mmHg 48%
15:00 +28°C° 0 mm 5 mps 747 mmHg 54%
16:00 +27°C° 0 mm 4 mps 747 mmHg 60%
17:00 +26°C° 0 mm 4 mps 748 mmHg 66%
18:00 +25°C° 0.1 mm 4 mps 748 mmHg 72%
19:00 +24°C° 0.1 mm 3 mps 749 mmHg 79%
20:00 +22°C° 0.1 mm 3 mps 749 mmHg 85%
21:00 +22°C° 0.2 mm 3 mps 749 mmHg 86%
22:00 +21°C° 0.2 mm 2 mps 749 mmHg 87%
23:00 +21°C° 0.2 mm 2 mps 749 mmHg 88%
Show more